Regional Weather Roundup
Issued by NWS Cleveland, OH

Home | Current Version | Previous Version | Graphics & Text | Print | Product List | Glossary On
Versions: 1 2 3 4 5 6 7 8 9 10 11 12 13 14 15 16 17 18 19 20 21 22 23 24 25 26 27 28 29 30 31 32 33 34 35 36 37 38 39 40 41 42 43 44 45 46 47 48 49 50
353
ASUS41 KCLE 272102
RWRCLE
OHIO REGIONAL WEATHER ROUNDUP
NATIONAL WEATHER SERVICE CLEVELAND, OH
500 PM EDT MON MAR 27 2017

NOTE: "FAIR" INDICATES FEW OR NO CLOUDS BELOW 12,000 FEET WITH NO
SIGNIFICANT WEATHER AND/OR OBSTRUCTIONS TO VISIBILITY.

OHZ001>008-015>018-024>027-034-035-043-044-272200-
   NORTHWEST OHIO

CITY           SKY/WX    TMP DP  RH WIND       PRES   REMARKS
DEFIANCE       PTSUNNY   59  49  69 SW5       29.89F
FINDLAY        CLOUDY    62  49  62 SW6       29.88F
TOLEDO EXPRESS CLOUDY    58  49  72 SW7       29.89F
TOLEDO EXEC    CLOUDY    60  51  72 SW9       29.91S
LIMA           CLOUDY    61  51  70 S3        29.88F
$$

OHZ009>014-019>023-028>033-038-089-272200-
   NORTHEAST OHIO

CITY           SKY/WX    TMP DP  RH WIND       PRES   REMARKS
CLE-HOPKINS    CLOUDY    62  48  60 SW13      29.93F
CLE-LAKEFRONT  PTSUNNY   53  49  86 CALM      29.91F
CUY CO. ARPT   PTSUNNY   61  52  72 NW9       29.91F
LORAIN-ELYRIA  CLOUDY    59  48  67 SW15      29.92S
ASHTABULA      CLOUDY    60  51  72 NW5       29.91F
AKRON-CANTON   PTSUNNY   64  47  53 W9        29.91F
WOOSTER        MOSUNNY   62  48  60 W10       29.91F
MANSFIELD      CLOUDY    61  49  64 W8        29.91S
YOUNGSTOWN     CLOUDY    63  47  55 SW8       29.91F
$$

OHZ042-051>053-060>062-070>072-077>081-272200-
  SOUTHWEST OHIO

CITY           SKY/WX    TMP DP  RH WIND       PRES   REMARKS
CINC-COVINGTON PTSUNNY   68  55  63 S8        29.86F
CINC-LUNKEN    MOSUNNY   69  57  65 S6        29.87F
HAMILTON       CLOUDY    67  53  61 SE3       29.88F
DAYTON         CLOUDY    63  48  58 S5        29.89F
WRIGHT-PAT AFB CLOUDY    65  51  60 SE7       29.88F
DAYTON GENERAL CLOUDY    64  51  62 SE7       29.88F
WILMINGTON     CLOUDY    64  53  67 SE5       29.89F
$$

OHZ036-037-039>041-045>050-054>059-063>069-073>076-082>088-272200-
  CENTRAL AND SOUTHEAST OHIO

CITY           SKY/WX    TMP DP  RH WIND       PRES   REMARKS
COLUMBUS       PTSUNNY   66  51  58 S8        29.89F
OSU AIRPORT    PTSUNNY   67  53  61 S9        29.89F
BOLTON FIELD   MOSUNNY   64  54  68 S8        29.90F
RICKENBACK AFB MOSUNNY   64  52  65 S5        29.90F
NEWARK         CLOUDY    65  50  58 S7        29.90F
MARION         CLOUDY    63  49  60 CALM      29.89F
LANCASTER      CLOUDY    66  52  60 SW6       29.91F
ZANESVILLE     CLOUDY    67  50  54 W3        29.91F
NEW PHILLY     NOT AVBL
$$




USA.gov is the U.S. government's official web portal to all federal, state and local government web resources and services.